This is the latest recevied weather packets stored in our database for station/object KB3AWQ. If no packets are shown the sender has not sent any weather packets the latest 10 day(s).
| Time | Temp. | Humidity | Pressure | Rain* | Wind** | Luminosity | Snow |
|---|---|---|---|---|---|---|---|
| 1777509566 | 11.11° C | 100% | 1007.6 hPa | 4.32 mm | - | 0 W/m² | - |
| 1777509267 | 11.11° C | 100% | 1007.7 hPa | 4.32 mm | - | 0 W/m² | - |
| 1777508967 | 11.11° C | 99% | 1007.9 hPa | 5.33 mm | - | 0 W/m² | - |
| 1777508667 | 11.11° C | 99% | 1008 hPa | 3.3 mm | - | 0 W/m² | - |
| 1777508367 | 11.11° C | 98% | 1008.2 hPa | 3.3 mm | - | 0 W/m² | - |
| 1777508066 | 11.11° C | 97% | 1008.4 hPa | 2.79 mm | - | 0 W/m² | - |
| 1777507766 | 11.11° C | 96% | 1008.3 hPa | 2.54 mm | - | 0 W/m² | - |
| 1777507467 | 11.11° C | 96% | 1008 hPa | 2.54 mm | - | 0 W/m² | - |
| 1777507166 | 11.11° C | 97% | 1008 hPa | 3.05 mm | - | 1 W/m² | - |
| 1777506867 | 11.11° C | 96% | 1007.7 hPa | 2.79 mm | - | 1 W/m² | - |
| 1777506566 | 11.11° C | 96% | 1007.7 hPa | 3.05 mm | - | 1 W/m² | - |
| 1777506267 | 11.11° C | 96% | 1007.6 hPa | 3.05 mm | - | 2 W/m² | - |
| 1777505967 | 11.67° C | 95% | 1007.5 hPa | 2.79 mm | - | 2 W/m² | - |
| 1777505667 | 11.67° C | 95% | 1007.6 hPa | 2.54 mm | - | 5 W/m² | - |
| 1777505367 | 11.67° C | 94% | 1007.5 hPa | 2.54 mm | - | 7 W/m² | - |
| 1777504819 | 11.67° C | 94% | 1007.7 hPa | 3.3 mm | - | 7 W/m² | - |
| 1777504468 | 11.67° C | 94% | 1007.7 hPa | 3.3 mm | - | 9 W/m² | - |
| 1777504167 | 11.67° C | 93% | 1007.7 hPa | 3.3 mm | - | 12 W/m² | - |
| 1777503867 | 11.67° C | 94% | 1007.7 hPa | 4.06 mm | - | 20 W/m² | - |
| 1777503566 | 11.67° C | 93% | 1007.7 hPa | 4.06 mm | - | 22 W/m² | - |
| 1777503266 | 11.67° C | 93% | 1007.6 hPa | 4.83 mm | - | 22 W/m² | - |
| 1777502966 | 11.67° C | 95% | 1007.5 hPa | 4.32 mm | - | 22 W/m² | - |
| 1777502666 | 11.67° C | 95% | 1007.5 hPa | 4.32 mm | - | 25 W/m² | - |
| 1777502366 | 11.67° C | 96% | 1007.6 hPa | 4.32 mm | - | 15 W/m² | - |
| 1777502067 | 11.67° C | 96% | 1007.7 hPa | 3.56 mm | - | 14 W/m² | - |
* Rain latest hour (hover to see other rain measurements)
** Current wind speed in m/s (hover to see current wind gust speed)